Location: Newark
(51.3318°N, 0.0053°E)
Time: 19:46:12
(UTC+00:00)

O/OREOS (USA 219) - Visible Passes

Search period start: 26 June 2022 00:00
Search period end: 06 July 2022 00:00
Orbit: 621 x 646 km, 72.0° (Epoch: 22 May)

Date Brightness Start Highest point End Pass type
(mag) Time Alt. Az. Time Alt. Az. Time Alt. Az.
26 Jun ? 00:34:12 10° NNW 00:38:37 43° NE 00:43:01 10° SE visible
26 Jun ? 02:13:54 10° NW 02:17:53 29° WSW 02:21:37 11° SSW visible
26 Jun ? 23:17:32 10° N 23:20:37 17° NE 23:23:42 10° E visible
27 Jun ? 00:56:10 10° NNW 01:00:48 81° ENE 01:05:04 12° SSE visible
27 Jun ? 02:36:55 10° WNW 02:39:35 15° W 02:42:15 10° SW visible
27 Jun ? 23:39:09 10° NNW 23:43:08 27° NE 23:47:05 10° ESE visible
28 Jun ? 01:18:19 10° NW 01:22:49 52° WSW 01:26:01 18° S visible
28 Jun ? 22:23:01 10° N 22:24:52 12° NNE 22:26:42 10° ENE visible
29 Jun ? 00:00:59 10° NNW 00:05:27 47° NE 00:09:40 11° SE visible
29 Jun ? 01:40:48 10° NW 01:44:40 27° WSW 01:47:04 17° SSW visible
29 Jun ? 22:44:16 10° N 22:47:30 18° NE 22:50:44 10° E visible
30 Jun ? 00:22:58 10° NNW 00:27:37 88° ENE 00:30:47 20° SSE visible
30 Jun ? 02:03:59 10° WNW 02:06:20 14° W 02:08:11 11° WSW visible
30 Jun ? 23:05:56 10° NNW 23:09:59 29° NE 23:14:02 10° ESE visible
01 Jul ? 00:45:10 10° NW 00:49:37 47° WSW 00:51:58 25° S visible
01 Jul ? 21:49:39 10° N 21:51:46 13° NNE 21:53:52 10° ENE visible
01 Jul ? 23:27:46 10° NNW 23:32:18 51° NE 23:35:48 16° SE visible
02 Jul ? 01:07:42 10° NW 01:11:26 25° WSW 01:13:12 19° SW visible
02 Jul ? 22:11:00 10° N 22:14:23 20° NE 22:17:46 10° E visible
02 Jul ? 23:49:47 10° NNW 23:54:26 85° WSW 23:57:05 25° SSE visible
03 Jul ? 01:31:07 10° WNW 01:33:05 13° W 01:34:30 11° WSW visible
03 Jul ? 22:32:42 10° NNW 22:36:51 31° NE 22:40:58 10° ESE visible
04 Jul ? 00:12:01 10° NW 00:16:24 43° WSW 00:18:25 27° SSW visible
04 Jul ? 21:16:20 10° N 21:18:40 14° NE 21:21:00 10° ENE visible
04 Jul ? 22:54:34 10° NNW 22:59:08 56° ENE 23:02:22 19° SE visible
05 Jul ? 00:34:37 10° NW 00:38:12 22° WSW 00:39:48 19° SW visible
05 Jul ? 21:37:45 10° N 21:41:16 21° NE 21:44:46 10° E visible
05 Jul ? 23:16:37 10° NNW 23:21:15 78° WSW 23:23:47 26° SSE visible
